Litchfield, IL

6:34 PM CDT on June 26, 2017 (GMT -0500)
Litchfield

Weather History for K3LF - February, 2014

Change the Weather History Date:

Monday, February 17, 2014

  Actual Average (KALN) Record (KALN)
Temperature  
Mean Temperature 30 °F -  
Max Temperature 38 °F 43 °F 71 °F (2017)
Min Temperature 21 °F 29 °F 6 °F (2015)
Degree Days  
Heating Degree Days 36    
Moisture  
Dew Point 26 °F    
Average Humidity 86    
Maximum Humidity 100    
Minimum Humidity 75    
Precipitation  
Precipitation 0.13 in - - ()
Sea Level Pressure  
Sea Level Pressure 29.94 in    
Wind  
Wind Speed 10 mph (SSW)    
Max Wind Speed 23 mph    
Max Gust Speed 30 mph    
Visibility 7 miles    
Events Rain , Snow , Thunderstorm    
Averages and records for this station are not official NWS values.
T = Trace of Precipitation, MM = Missing Value Source: NWS Daily Summary

Daily Weather History Graph

Daily Weather History Graph

Search for Another Location

Airport or City:

Trip Planner

Search our weather history database for the weather conditions in past years. The results will help you decide how hot, cold, wet, or windy it might be!

Date:

Astronomy

Feb. 17, 2014 Rise Set
Actual Time 6:47 AM CST 5:38 PM CST
Civil Twilight 6:20 AM CST 6:05 PM CST
Nautical Twilight 5:49 AM CST 6:36 PM CST
Astronomical Twilight 5:18 AM CST 7:07 PM CST
Moon 8:31 PM CST (2/17) 7:49 AM CST (2/17)
Length of Visible Light 11h 44m
Length of Day
10h 50m
Waning Gibbous, 93% of the Moon is Illuminated
Feb 17
Waning Gibbous
Feb 22
Last Quarter
Mar 1
New
Mar 8
First Quarter
Mar 16
Full

Hourly Weather History & Observations

Time (CST) Temp. Windchill Dew Point Humidity Pressure Visibility Wind Dir Wind Speed Gust Speed Precip Events Conditions
12:15 AM 21.0 °F 9.3 °F 15.8 °F 80% 30.16 in 10.0 mi East 11.5 mph - N/A   Scattered Clouds
12:35 AM 21.0 °F 9.3 °F 15.6 °F 80% 30.17 in 10.0 mi ESE 11.5 mph - N/A   Mostly Cloudy
12:55 AM 21.2 °F 10.9 °F 15.8 °F 80% 30.17 in 10.0 mi SE 9.2 mph - N/A   Scattered Clouds
1:15 AM 21.2 °F 11.7 °F 16.3 °F 82% 30.17 in 10.0 mi SE 8.1 mph - N/A   Scattered Clouds
1:35 AM 21.2 °F - 16.3 °F 82% 30.15 in 10.0 mi Calm Calm - N/A   Scattered Clouds
1:55 AM 21.2 °F 10.9 °F 16.2 °F 81% 30.15 in 10.0 mi ESE 9.2 mph - N/A   Clear
2:15 AM 21.2 °F - 16.3 °F 82% 30.15 in 10.0 mi Calm Calm - N/A   Clear
2:35 AM 21.2 °F - 16.5 °F 82% 30.12 in 10.0 mi Calm Calm - N/A   Clear
2:55 AM 21.2 °F 10.1 °F 16.7 °F 83% 30.11 in 10.0 mi ESE 10.4 mph - N/A   Scattered Clouds
3:15 AM 21.7 °F 9.0 °F 16.9 °F 82% 30.08 in 10.0 mi ESE 13.8 mph 18.4 mph N/A   Scattered Clouds
3:35 AM 22.1 °F 7.6 °F 17.1 °F 81% 30.05 in 10.0 mi ESE 18.4 mph - N/A   Scattered Clouds
3:55 AM 22.5 °F 8.0 °F 17.4 °F 81% 30.04 in 10.0 mi ESE 18.4 mph 23.0 mph N/A   Scattered Clouds
4:15 AM 23.0 °F 9.2 °F 17.8 °F 80% 30.03 in 10.0 mi ESE 17.3 mph 24.2 mph N/A   Mostly Cloudy
4:35 AM 23.0 °F 8.7 °F 18.1 °F 82% 30.01 in 10.0 mi SE 18.4 mph 27.6 mph N/A   Mostly Cloudy
4:55 AM 23.0 °F 9.6 °F 18.5 °F 83% 30.02 in 10.0 mi SE 16.1 mph 21.9 mph N/A   Mostly Cloudy
5:15 AM 23.0 °F 10.1 °F 19.0 °F 85% 30.03 in 7.0 mi SE 15.0 mph - N/A   Mostly Cloudy
5:35 AM 23.5 °F - 19.4 °F 84% 30.03 in 7.0 mi Calm Calm - N/A   Overcast
5:55 AM 24.8 °F 11.5 °F 21.9 °F 89% 30.00 in 4.0 mi SE 17.3 mph 20.7 mph 0.02 in   Overcast
6:15 AM 25.2 °F 13.3 °F 22.3 °F 89% 29.95 in 5.0 mi ESE 13.8 mph 19.6 mph 0.01 in   Overcast
6:35 AM 25.3 °F 13.6 °F 22.5 °F 89% 29.98 in 7.0 mi SE 13.8 mph - 0.01 in   Overcast
6:55 AM 26.2 °F 13.4 °F 23.7 °F 90% 29.96 in 4.0 mi SE 17.3 mph 23.0 mph 0.02 in   Overcast
7:15 AM 26.6 °F 16.2 °F 24.6 °F 92% 29.95 in 3.0 mi ESE 11.5 mph 17.3 mph 0.01 in   Overcast
7:35 AM 27.5 °F - 25.7 °F 93% 29.96 in 1.8 mi Calm Calm - 0.06 in Snow Light Snow
7:55 AM 27.5 °F 17.4 °F 25.5 °F 92% 29.93 in 5.0 mi ESE 11.5 mph 16.1 mph 0.07 in   Overcast
8:15 AM 26.6 °F 17.5 °F 24.8 °F 93% 29.91 in 5.0 mi ESE 9.2 mph 16.1 mph N/A   Overcast
8:35 AM 27.7 °F 17.6 °F 25.7 °F 92% 29.89 in 5.0 mi ESE 11.5 mph - N/A   Overcast
8:55 AM 28.4 °F - 26.1 °F 91% 29.90 in 5.0 mi Calm Calm - N/A   Overcast
9:15 AM 28.8 °F - 26.4 °F 91% 29.88 in 5.0 mi Calm Calm - N/A   Mostly Cloudy
9:35 AM 28.4 °F - 26.6 °F 93% 29.86 in 5.0 mi Calm Calm - N/A   Mostly Cloudy
9:55 AM 28.8 °F - 26.8 °F 92% 29.86 in 2.5 mi Calm Calm - 0.01 in Snow Light Snow
10:15 AM 29.7 °F 20.1 °F 27.9 °F 93% 29.81 in 3.0 mi ESE 11.5 mph - N/A   Mostly Cloudy
10:35 AM 30.0 °F - 28.2 °F 93% 29.81 in 3.0 mi Calm Calm - N/A   Overcast
10:55 AM 30.0 °F - 28.4 °F 94% 29.82 in 3.0 mi Calm Calm - N/A   Overcast
11:15 AM 30.6 °F - 29.1 °F 94% 29.81 in 3.0 mi Calm Calm - N/A   Overcast
11:35 AM 30.9 °F - 29.7 °F 95% 29.81 in 2.0 mi Calm Calm - N/A   Overcast
11:55 AM 31.1 °F - 30.2 °F 96% 29.80 in 2.0 mi Calm Calm - 0.01 in Rain Light Freezing Rain
12:15 PM 31.1 °F - 30.6 °F 98% 29.78 in 1.8 mi Calm Calm - N/A   Light Freezing Rain
12:35 PM 31.5 °F - 30.7 °F 97% 29.78 in 1.8 mi Calm Calm - N/A Rain Light Freezing Rain
12:55 PM 31.6 °F - 31.1 °F 98% 29.78 in 1.0 mi Calm Calm - N/A Thunderstorm Overcast
1:15 PM 32.0 °F - 31.6 °F 99% 29.77 in 1.2 mi Calm Calm - N/A Rain Light Rain
1:35 PM 32.0 °F - 32.0 °F 100% 29.78 in 1.5 mi Calm Calm - N/A Snow Light Snow
1:55 PM 32.4 °F - 32.0 °F 99% 29.78 in 2.0 mi Calm Calm - N/A   Overcast
2:15 PM 32.9 °F 21.3 °F 32.0 °F 96% 29.80 in 2.5 mi West 19.6 mph - N/A   Overcast
2:35 PM 33.3 °F 20.9 °F 32.0 °F 95% 29.81 in 4.0 mi West 23.0 mph 28.8 mph N/A   Overcast
2:55 PM 33.3 °F 21.5 °F 31.6 °F 94% 29.82 in 4.0 mi West 20.7 mph 29.9 mph N/A   Overcast
3:15 PM 33.4 °F 22.0 °F 31.1 °F 91% 29.83 in 5.0 mi West 19.6 mph 27.6 mph N/A   Overcast
3:35 PM 33.8 °F 22.5 °F 31.5 °F 91% 29.84 in 5.0 mi West 19.6 mph 29.9 mph N/A   Overcast
3:55 PM 33.8 °F 22.2 °F 31.6 °F 92% 29.86 in 5.0 mi West 20.7 mph 27.6 mph N/A   Overcast
4:15 PM 34.2 °F 24.4 °F 31.8 °F 91% 29.86 in 5.0 mi West 15.0 mph - N/A   Mostly Cloudy
4:35 PM 34.7 °F 25.1 °F 32.0 °F 90% 29.86 in 5.0 mi West 15.0 mph 19.6 mph N/A   Scattered Clouds
4:55 PM 34.7 °F 27.5 °F 32.0 °F 90% 29.88 in 5.0 mi West 9.2 mph - N/A   Clear
5:15 PM 34.9 °F 25.7 °F 32.2 °F 90% 29.89 in 5.0 mi WSW 13.8 mph - N/A   Clear
5:35 PM 35.2 °F 25.4 °F 32.5 °F 90% 29.91 in 7.0 mi WSW 16.1 mph 20.7 mph N/A   Clear
5:55 PM 36.0 °F 26.0 °F 32.5 °F 87% 29.92 in 7.0 mi WSW 17.3 mph - N/A   Clear
6:15 PM 36.9 °F 27.1 °F 32.4 °F 84% 29.93 in 10.0 mi WSW 17.3 mph - N/A   Clear
6:35 PM 37.4 °F 28.2 °F 32.0 °F 81% 29.94 in 10.0 mi WSW 16.1 mph - N/A   Clear
6:55 PM 37.4 °F 27.5 °F 32.0 °F 81% 29.94 in 10.0 mi WSW 18.4 mph - N/A   Clear
7:15 PM 37.6 °F 28.1 °F 31.8 °F 80% 29.95 in 10.0 mi WSW 17.3 mph - N/A   Clear
7:35 PM 38.1 °F 29.5 °F 31.1 °F 76% 29.95 in 10.0 mi WSW 15.0 mph - N/A   Clear
7:55 PM 37.8 °F 29.0 °F 30.9 °F 76% 29.96 in 10.0 mi WSW 15.0 mph - N/A   Clear
8:15 PM 37.2 °F 28.7 °F 30.6 °F 77% 29.97 in 10.0 mi WSW 13.8 mph - N/A   Clear
8:35 PM 37.4 °F 29.3 °F 30.2 °F 75% 29.97 in 10.0 mi WSW 12.7 mph - N/A   Clear
8:55 PM 36.9 °F 29.6 °F 30.0 °F 76% 29.98 in 10.0 mi WSW 10.4 mph - N/A   Clear
9:15 PM 36.5 °F 28.2 °F 29.7 °F 76% 29.98 in 10.0 mi WSW 12.7 mph - N/A   Clear
9:35 PM 37.0 °F 34.5 °F 29.7 °F 75% 29.98 in 10.0 mi WSW 3.5 mph - N/A   Clear
9:55 PM 36.7 °F 28.9 °F 29.8 °F 76% 29.98 in 10.0 mi WSW 11.5 mph - N/A   Clear
10:15 PM 36.7 °F 30.5 °F 29.3 °F 75% 29.98 in 10.0 mi WSW 8.1 mph - N/A   Clear
10:35 PM 36.0 °F - 28.9 °F 76% 29.99 in 10.0 mi Calm Calm - N/A   Clear
10:55 PM 34.9 °F - 28.4 °F 77% 29.99 in 10.0 mi Calm Calm - N/A   Clear
11:15 PM 33.8 °F - 27.9 °F 79% 29.99 in 10.0 mi Calm Calm - N/A   Clear
11:35 PM 34.0 °F - 27.9 °F 78% 29.99 in 10.0 mi Calm Calm - N/A   Clear
11:55 PM 33.1 °F - 27.0 °F 78% 30.00 in 10.0 mi Calm Calm - N/A   Clear